Location: Auckland
(36.8670°S, 174.7670°E)
Time: 09:59:52
(UTC+13:00)

SeaSat 1 - Pass Details

Date: 24 January 2019
Orbit: 745 x 747 km, 108.0° (Epoch: 20 October)

Event Time Altitude Azimuth Distance (km) Brightness Sun altitude
Rises 23:34:36 0° 155° (SSE) 3,222 6.2 -27.3°
Reaches altitude 10° 23:36:53 10° 155° (SSE) 2,291 5.3 -27.6°
Enters shadow 23:41:01 62° 149° (SSE) 849 2.7 -28.0°
